QPF
0.01 0.01 0.00 0.00 0.00 0.00 0.00 0.00 0.00 0.00 0.00 0.00 0.01 0.03 0.04 0.03 0.04 0.05 0.03 0.01 0.01 0.01 0.01 0.01 0.00 0.00 0.00 0.00 0.00 0.00 0.00 0.00 0.01 0.01 0.00 0.01 0.00 0.00 0.01 0.01 0.01 0.01 0.01 0.02
0.00 0.00 0.00 0.00 0.00 0.00 0.00 0.01 0.01 0.00 0.01 0.01 0.02 0.02 0.02 0.02 0.04 0.05 0.02 0.01 0.01 0.01 0.01 0.01 0.01 0.01 0.01 0.00 0.00 0.00 0.00 0.00 0.01 0.00 0.01 0.01 0.01 0.01 0.02 0.02 0.01 0.01 0.01 0.01
0.00 0.00 0.00 0.00 0.00 0.00 0.00 0.00 0.00 0.00 0.01 0.01 0.01 0.01 0.01 0.01 0.02 0.02 0.01 0.01 0.01 0.02 0.01 0.01 0.01 0.01 0.01 0.01 0.00 0.00 0.01 0.01 0.01 0.00 0.01 0.01 0.01 0.01 0.02 0.02 0.02 0.02 0.01 0.02
0.00 0.00 0.00 0.00 0.01 0.00 0.00 0.00 0.00 0.00 0.01 0.01 0.01 0.01 0.00 0.00 0.01 0.01 0.01 0.01 0.01 0.02 0.02 0.01 0.01 0.01 0.01 0.01 0.01 0.01 0.01 0.01 0.02 0.01 0.01 0.01 0.02 0.02 0.02 0.02 0.02 0.03 0.03 0.03
0.00 0.00 0.00 0.00 0.01 0.01 0.00 0.00 0.00 0.01 0.01 0.01 0.01 0.00 0.00 0.00 0.01 0.01 0.00 0.00 0.01 0.01 0.01 0.01 0.02 0.02 0.01 0.02 0.02 0.02 0.02 0.01 0.02 0.03 0.04 0.04 0.03 0.04 0.04 0.04 0.04 0.03 0.03 0.03
0.00 0.00 0.00 0.00 0.01 0.01 0.00 0.00 0.00 0.00 0.00 0.00 0.00 0.00 0.00 0.00 0.01 0.01 0.00 0.00 0.00 0.00 0.01 0.01 0.02 0.03 0.03 0.03 0.03 0.03 0.02 0.02 0.03 0.05 0.08 0.09 0.10 0.09 0.07 0.05 0.04 0.03 0.03 0.03
0.00 0.00 0.00 0.00 0.01 0.01 0.01 0.00 0.00 0.00 0.00 0.00 0.00 0.00 0.00 0.00 0.00 0.00 0.01 0.00 0.00 0.01 0.01 0.02 0.03 0.05 0.07 0.04 0.03 0.03 0.02 0.02 0.03 0.07 0.11 0.16 0.15 0.12 0.05 0.03 0.02 0.01 0.02 0.03
0.00 0.00 0.00 0.00 0.00 0.01 0.01 0.01 0.00 0.00 0.00 0.00 0.00 0.00 0.01 0.01 0.00 0.00 0.01 0.00 0.00 0.01 0.01 0.02 0.03 0.03 0.02 0.02 0.02 0.02 0.03 0.03 0.04 0.08 0.08 0.07 0.05 0.04 0.02 0.02 0.02 0.01 0.02 0.03
0.00 0.00 0.00 0.00 0.00 0.00 0.01 0.01 0.00 0.00 0.00 0.00 0.00 0.00 0.00 0.00 0.00 0.00 0.00 0.00 0.00 0.01 0.01 0.01 0.01 0.01 0.01 0.01 0.01 0.02 0.03 0.03 0.03 0.03 0.03 0.03 0.03 0.03 0.03 0.03 0.03 0.03 0.03 0.04
0.00 0.00 0.00 0.00 0.00 0.00 0.00 0.01 0.01 0.01 0.00 0.00 0.00 0.00 0.00 0.00 0.00 0.00 0.00 0.01 0.00 0.01 0.01 0.02 0.01 0.02 0.01 0.01 0.01 0.01 0.02 0.02 0.03 0.03 0.03 0.04 0.04 0.05 0.05 0.06 0.06 0.06 0.06 0.08
0.00 0.00 0.00 0.00 0.00 0.00 0.00 0.01 0.01 0.01 0.01 0.00 0.00 0.00 0.00 0.00 0.00 0.00 0.01 0.01 0.01 0.01 0.01 0.01 0.01 0.01 0.01 0.01 0.01 0.01 0.01 0.01 0.02 0.03 0.03 0.03 0.04 0.04 0.03 0.05 0.05 0.07 0.08 0.09
0.00 0.00 0.00 0.00 0.00 0.00 0.00 0.00 0.01 0.01 0.01 0.00 0.00 0.00 0.00 0.00 0.01 0.01 0.00 0.01 0.01 0.01 0.01 0.01 0.01 0.01 0.01 0.01 0.01 0.01 0.01 0.01 0.01 0.02 0.02 0.02 0.03 0.04 0.04 0.04 0.04 0.04 0.05 0.07
0.00 0.00 0.00 0.00 0.00 0.00 0.00 0.00 0.00 0.00 0.01 0.00 0.00 0.00 0.00 0.01 0.01 0.01 0.01 0.01 0.01 0.01 0.01 0.01 0.01 0.01 0.01 0.01 0.01 0.01 0.01 0.01 0.02 0.03 0.05 0.06 0.06 0.06 0.06 0.07 0.05 0.03 0.04 0.06
0.00 0.00 0.00 0.00 0.00 0.00 0.00 0.00 0.00 0.00 0.00 0.00 0.00 0.00 0.00 0.01 0.01 0.01 0.01 0.01 0.01 0.01 0.01 0.01 0.01 0.01 0.01 0.01 0.02 0.02 0.02 0.03 0.03 0.04 0.05 0.07 0.08 0.06 0.07 0.09 0.07 0.04 0.03 0.03
0.00 0.00 0.00 0.00 0.00 0.00 0.00 0.00 0.00 0.00 0.00 0.00 0.00 0.00 0.00 0.00 0.00 0.01 0.01 0.01 0.01 0.01 0.01 0.01 0.01 0.01 0.01 0.01 0.02 0.02 0.02 0.03 0.03 0.04 0.04 0.05 0.07 0.07 0.08 0.07 0.04 0.04 0.04 0.04
0.01 0.00 0.00 0.00 0.00 0.00 0.00 0.00 0.00 0.00 0.00 0.00 0.00 0.00 0.00 0.00 0.01 0.01 0.01 0.01 0.01 0.01 0.01 0.01 0.01 0.02 0.02 0.02 0.02 0.02 0.02 0.03 0.03 0.04 0.04 0.06 0.09 0.08 0.07 0.06 0.05 0.04 0.04 0.06
0.00 0.01 0.01 0.00 0.01 0.01 0.01 0.00 0.00 0.00 0.00 0.01 0.01 0.01 0.01 0.01 0.01 0.01 0.01 0.01 0.01 0.01 0.01 0.02 0.03 0.03 0.02 0.02 0.02 0.02 0.02 0.03 0.04 0.04 0.05 0.07 0.07 0.05 0.04 0.03 0.04 0.04 0.06 0.08
0.01 0.01 0.01 0.01 0.01 0.01 0.01 0.01 0.01 0.00 0.00 0.00 0.00 0.01 0.03 0.02 0.01 0.01 0.01 0.01 0.01 0.01 0.02 0.03 0.03 0.02 0.02 0.02 0.02 0.02 0.03 0.04 0.04 0.05 0.05 0.03 0.02 0.02 0.02 0.02 0.03 0.04 0.05 0.05
0.01 0.01 0.01 0.01 0.00 0.01 0.01 0.01 0.01 0.01 0.01 0.00 0.00 0.01 0.01 0.01 0.01 0.01 0.01 0.01 0.02 0.03 0.04 0.04 0.04 0.02 0.02 0.02 0.02 0.02 0.03 0.04 0.05 0.05 0.05 0.03 0.02 0.01 0.01 0.02 0.02 0.03 0.03 0.04
0.01 0.01 0.01 0.01 0.01 0.01 0.01 0.00 0.00 0.01 0.02 0.01 0.01 0.01 0.02 0.02 0.02 0.02 0.02 0.03 0.04 0.05 0.05 0.04 0.03 0.02 0.02 0.02 0.02 0.02 0.02 0.03 0.03 0.04 0.04 0.04 0.04 0.03 0.03 0.03 0.04 0.04 0.03 0.03
0.01 0.01 0.01 0.01 0.01 0.01 0.01 0.00 0.00 0.01 0.02 0.02 0.02 0.02 0.03 0.04 0.04 0.03 0.04 0.04 0.04 0.03 0.04 0.03 0.03 0.02 0.03 0.03 0.03 0.04 0.03 0.04 0.04 0.04 0.04 0.04 0.04 0.04 0.04 0.04 0.04 0.04 0.03 0.02
0.01 0.01 0.01 0.01 0.01 0.01 0.01 0.01 0.01 0.01 0.01 0.02 0.03 0.04 0.04 0.04 0.03 0.02 0.03 0.03 0.03 0.03 0.03 0.03 0.03 0.03 0.04 0.04 0.05 0.05 0.05 0.05 0.05 0.03 0.03 0.03 0.03 0.03 0.03 0.03 0.03 0.03 0.03 0.02
0.00 0.00 0.01 0.01 0.01 0.01 0.01 0.01 0.01 0.01 0.01 0.02 0.03 0.04 0.04 0.04 0.04 0.03 0.04 0.04 0.05 0.05 0.05 0.05 0.04 0.05 0.05 0.05 0.05 0.06 0.06 0.05 0.04 0.03 0.04 0.04 0.04 0.04 0.05 0.05 0.05 0.04 0.04 0.04
0.01 0.00 0.01 0.01 0.01 0.01 0.01 0.01 0.01 0.01 0.01 0.01 0.02 0.02 0.02 0.03 0.04 0.03 0.04 0.04 0.05 0.06 0.05 0.05 0.05 0.04 0.05 0.06 0.06 0.06 0.05 0.05 0.05 0.05 0.05 0.06 0.06 0.07 0.08 0.09 0.10 0.11 0.10 0.09
0.01 0.00 0.00 0.01 0.01 0.01 0.01 0.01 0.01 0.01 0.01 0.01 0.01 0.01 0.01 0.02 0.02 0.02 0.02 0.02 0.03 0.03 0.03 0.03 0.03 0.03 0.04 0.05 0.05 0.06 0.07 0.05 0.05 0.06 0.06 0.06 0.07 0.09 0.11 0.15 0.19 0.21 0.18 0.13
0.01 0.00 0.00 0.00 0.00 0.01 0.02 0.02 0.02 0.01 0.01 0.01 0.01 0.01 0.01 0.01 0.01 0.01 0.01 0.01 0.01 0.01 0.01 0.02 0.02 0.02 0.02 0.03 0.04 0.07 0.10 0.07 0.04 0.04 0.04 0.04 0.05 0.05 0.07 0.08 0.08 0.07 0.07 0.07
MSLP
1007.49 1008.36 1009.08 1009.62 1010.02 1010.32 1010.57 1010.83 1011.11 1011.40 1011.67 1011.87 1011.96 1011.93 1011.77 1011.53 1011.26 1011.00 1010.81 1010.72 1010.72 1010.80 1010.93 1011.05 1011.15 1011.21 1011.23 1011.24 1011.27 1011.34 1011.48 1011.68 1011.92 1012.17 1012.38 1012.53 1012.60 1012.58 1012.50 1012.41 1012.33 1012.31 1012.37 1012.51
1008.31 1009.01 1009.52 1009.88 1010.14 1010.36 1010.60 1010.91 1011.27 1011.66 1012.01 1012.24 1012.32 1012.22 1011.94 1011.54 1011.10 1010.71 1010.41 1010.26 1010.26 1010.38 1010.57 1010.77 1010.93 1011.03 1011.07 1011.08 1011.09 1011.15 1011.28 1011.50 1011.78 1012.09 1012.37 1012.58 1012.70 1012.72 1012.65 1012.53 1012.42 1012.36 1012.38 1012.50
1008.86 1009.35 1009.66 1009.84 1009.98 1010.17 1010.46 1010.87 1011.38 1011.91 1012.38 1012.68 1012.75 1012.56 1012.14 1011.56 1010.93 1010.36 1009.93 1009.71 1009.69 1009.85 1010.11 1010.40 1010.65 1010.82 1010.90 1010.93 1010.94 1010.99 1011.12 1011.35 1011.66 1012.00 1012.34 1012.62 1012.80 1012.85 1012.80 1012.68 1012.54 1012.45 1012.44 1012.53
1009.15 1009.41 1009.51 1009.55 1009.63 1009.84 1010.24 1010.82 1011.53 1012.25 1012.86 1013.23 1013.29 1013.00 1012.42 1011.63 1010.78 1010.00 1009.42 1009.09 1009.04 1009.23 1009.56 1009.95 1010.30 1010.57 1010.72 1010.78 1010.81 1010.85 1010.97 1011.20 1011.51 1011.89 1012.27 1012.60 1012.83 1012.93 1012.90 1012.80 1012.66 1012.55 1012.50 1012.56
1009.28 1009.31 1009.24 1009.18 1009.25 1009.54 1010.09 1010.88 1011.82 1012.74 1013.49 1013.93 1013.95 1013.55 1012.78 1011.76 1010.66 1009.67 1008.90 1008.46 1008.37 1008.56 1008.97 1009.46 1009.92 1010.28 1010.51 1010.62 1010.67 1010.71 1010.82 1011.02 1011.33 1011.71 1012.12 1012.49 1012.76 1012.91 1012.93 1012.85 1012.73 1012.61 1012.55 1012.58
1009.38 1009.22 1009.01 1008.89 1008.99 1009.39 1010.13 1011.14 1012.29 1013.39 1014.26 1014.74 1014.71 1014.17 1013.20 1011.94 1010.59 1009.36 1008.42 1007.85 1007.70 1007.90 1008.36 1008.94 1009.50 1009.96 1010.27 1010.44 1010.50 1010.54 1010.62 1010.80 1011.08 1011.45 1011.86 1012.26 1012.57 1012.77 1012.84 1012.81 1012.71 1012.61 1012.55 1012.56
1009.61 1009.28 1008.98 1008.84 1008.99 1009.53 1010.43 1011.63 1012.95 1014.18 1015.11 1015.58 1015.46 1014.77 1013.60 1012.10 1010.53 1009.09 1007.97 1007.29 1007.07 1007.27 1007.77 1008.41 1009.06 1009.61 1009.99 1010.20 1010.29 1010.32 1010.37 1010.51 1010.76 1011.10 1011.51 1011.91 1012.26 1012.50 1012.63 1012.65 1012.60 1012.53 1012.47 1012.48
1010.04 1009.60 1009.24 1009.11 1009.33 1009.96 1010.99 1012.30 1013.72 1015.00 1015.93 1016.33 1016.10 1015.25 1013.89 1012.20 1010.43 1008.82 1007.57 1006.79 1006.52 1006.69 1007.21 1007.90 1008.61 1009.21 1009.65 1009.90 1010.00 1010.02 1010.06 1010.16 1010.37 1010.69 1011.08 1011.48 1011.85 1012.14 1012.32 1012.39 1012.40 1012.36 1012.33 1012.35
1010.67 1010.17 1009.80 1009.68 1009.95 1010.64 1011.72 1013.07 1014.48 1015.73 1016.58 1016.86 1016.50 1015.51 1014.00 1012.17 1010.27 1008.56 1007.22 1006.37 1006.05 1006.20 1006.71 1007.41 1008.14 1008.77 1009.23 1009.50 1009.62 1009.66 1009.68 1009.76 1009.95 1010.24 1010.62 1011.02 1011.41 1011.73 1011.95 1012.08 1012.13 1012.14 1012.14 1012.17
1011.41 1010.91 1010.56 1010.47 1010.76 1011.46 1012.51 1013.80 1015.11 1016.23 1016.94 1017.09 1016.59 1015.49 1013.89 1011.99 1010.06 1008.30 1006.93 1006.05 1005.69 1005.81 1006.27 1006.94 1007.64 1008.27 1008.74 1009.02 1009.16 1009.21 1009.25 1009.34 1009.52 1009.81 1010.17 1010.58 1010.97 1011.31 1011.57 1011.74 1011.83 1011.89 1011.93 1011.99
1012.14 1011.70 1011.39 1011.33 1011.62 1012.26 1013.22 1014.37 1015.50 1016.43 1016.96 1016.95 1016.35 1015.18 1013.57 1011.70 1009.81 1008.10 1006.75 1005.86 1005.47 1005.53 1005.91 1006.50 1007.14 1007.71 1008.15 1008.45 1008.61 1008.70 1008.77 1008.90 1009.11 1009.41 1009.78 1010.19 1010.59 1010.94 1011.21 1011.41 1011.54 1011.63 1011.71 1011.80
1012.75 1012.40 1012.16 1012.14 1012.39 1012.95 1013.76 1014.70 1015.61 1016.32 1016.66 1016.51 1015.84 1014.68 1013.13 1011.36 1009.58 1007.98 1006.70 1005.83 1005.40 1005.37 1005.64 1006.10 1006.62 1007.10 1007.50 1007.78 1007.97 1008.11 1008.26 1008.45 1008.72 1009.06 1009.46 1009.87 1010.27 1010.62 1010.89 1011.10 1011.25 1011.38 1011.50 1011.63
1013.20 1012.97 1012.81 1012.82 1013.03 1013.47 1014.10 1014.81 1015.47 1015.95 1016.10 1015.85 1015.16 1014.06 1012.65 1011.06 1009.46 1008.00 1006.81 1005.97 1005.49 1005.34 1005.46 1005.74 1006.10 1006.46 1006.78 1007.05 1007.27 1007.47 1007.71 1007.99 1008.33 1008.73 1009.16 1009.58 1009.98 1010.32 1010.59 1010.80 1010.97 1011.11 1011.27 1011.45
1013.53 1013.42 1013.35 1013.38 1013.54 1013.85 1014.28 1014.75 1015.17 1015.43 1015.44 1015.12 1014.46 1013.47 1012.24 1010.86 1009.47 1008.19 1007.10 1006.27 1005.72 1005.43 1005.36 1005.43 1005.60 1005.81 1006.03 1006.26 1006.51 1006.78 1007.11 1007.49 1007.91 1008.38 1008.84 1009.29 1009.68 1010.00 1010.26 1010.47 1010.64 1010.82 1011.01 1011.24
1013.83 1013.85 1013.85 1013.88 1013.98 1014.15 1014.38 1014.63 1014.82 1014.90 1014.78 1014.43 1013.83 1013.00 1011.97 1010.83 1009.66 1008.54 1007.54 1006.72 1006.08 1005.62 1005.34 1005.19 1005.14 1005.18 1005.29 1005.47 1005.72 1006.05 1006.46 1006.93 1007.44 1007.96 1008.46 1008.92 1009.30 1009.62 1009.86 1010.07 1010.26 1010.46 1010.69 1010.97
1014.26 1014.35 1014.40 1014.41 1014.43 1014.46 1014.50 1014.54 1014.53 1014.45 1014.25 1013.89 1013.37 1012.69 1011.88 1010.96 1009.99 1009.03 1008.10 1007.26 1006.52 1005.90 1005.39 1005.01 1004.75 1004.61 1004.60 1004.71 1004.96 1005.32 1005.78 1006.32 1006.89 1007.45 1007.98 1008.43 1008.81 1009.12 1009.36 1009.57 1009.78 1010.02 1010.30 1010.64
1014.88 1015.02 1015.06 1015.03 1014.95 1014.83 1014.69 1014.54 1014.36 1014.15 1013.88 1013.54 1013.10 1012.57 1011.94 1011.22 1010.43 1009.59 1008.72 1007.86 1007.02 1006.23 1005.53 1004.93 1004.46 1004.16 1004.02 1004.06 1004.27 1004.63 1005.12 1005.68 1006.27 1006.85 1007.38 1007.83 1008.21 1008.51 1008.76 1008.99 1009.24 1009.52 1009.86 1010.24
1015.72 1015.85 1015.85 1015.74 1015.53 1015.26 1014.96 1014.64 1014.32 1014.00 1013.68 1013.35 1012.99 1012.58 1012.11 1011.55 1010.90 1010.16 1009.34 1008.45 1007.53 1006.61 1005.74 1004.97 1004.34 1003.88 1003.62 1003.58 1003.73 1004.06 1004.52 1005.06 1005.64 1006.20 1006.71 1007.14 1007.51 1007.82 1008.10 1008.37 1008.67 1009.01 1009.40 1009.83
1016.69 1016.75 1016.67 1016.45 1016.11 1015.70 1015.25 1014.78 1014.35 1013.95 1013.59 1013.28 1012.98 1012.67 1012.31 1011.88 1011.34 1010.68 1009.90 1009.01 1008.04 1007.04 1006.06 1005.16 1004.41 1003.84 1003.48 1003.34 1003.42 1003.67 1004.07 1004.55 1005.06 1005.57 1006.03 1006.44 1006.80 1007.13 1007.44 1007.77 1008.13 1008.54 1008.99 1009.46
1017.62 1017.58 1017.38 1017.04 1016.58 1016.03 1015.46 1014.89 1014.37 1013.92 1013.54 1013.25 1013.00 1012.76 1012.50 1012.16 1011.71 1011.12 1010.38 1009.51 1008.54 1007.51 1006.48 1005.53 1004.70 1004.05 1003.61 1003.39 1003.37 1003.53 1003.82 1004.20 1004.62 1005.04 1005.44 1005.81 1006.16 1006.51 1006.87 1007.27 1007.70 1008.18 1008.68 1009.19
1018.34 1018.17 1017.85 1017.38 1016.81 1016.17 1015.51 1014.87 1014.31 1013.84 1013.47 1013.20 1013.00 1012.82 1012.63 1012.37 1011.99 1011.47 1010.79 1009.97 1009.03 1008.03 1007.02 1006.06 1005.22 1004.54 1004.04 1003.74 1003.62 1003.66 1003.82 1004.07 1004.36 1004.67 1005.00 1005.32 1005.66 1006.03 1006.45 1006.91 1007.41 1007.95 1008.51 1009.05
1018.68 1018.40 1017.96 1017.40 1016.74 1016.04 1015.35 1014.70 1014.14 1013.69 1013.35 1013.12 1012.97 1012.85 1012.71 1012.51 1012.20 1011.75 1011.14 1010.40 1009.54 1008.61 1007.66 1006.75 1005.94 1005.25 1004.72 1004.35 1004.13 1004.05 1004.07 1004.17 1004.32 1004.51 1004.75 1005.02 1005.34 1005.73 1006.18 1006.70 1007.27 1007.87 1008.46 1009.01
1018.61 1018.22 1017.70 1017.07 1016.38 1015.68 1015.00 1014.38 1013.88 1013.48 1013.21 1013.03 1012.93 1012.86 1012.77 1012.62 1012.37 1011.98 1011.46 1010.81 1010.05 1009.22 1008.37 1007.55 1006.79 1006.12 1005.58 1005.15 1004.84 1004.64 1004.52 1004.47 1004.48 1004.55 1004.69 1004.90 1005.19 1005.58 1006.07 1006.63 1007.24 1007.87 1008.49 1009.04
1018.18 1017.71 1017.14 1016.49 1015.82 1015.15 1014.54 1014.01 1013.58 1013.27 1013.08 1012.97 1012.92 1012.90 1012.85 1012.74 1012.53 1012.21 1011.76 1011.20 1010.55 1009.84 1009.10 1008.37 1007.69 1007.06 1006.52 1006.05 1005.66 1005.34 1005.09 1004.90 1004.78 1004.73 1004.78 1004.92 1005.18 1005.55 1006.04 1006.62 1007.25 1007.89 1008.51 1009.06
1017.54 1017.04 1016.45 1015.82 1015.20 1014.61 1014.09 1013.67 1013.36 1013.15 1013.04 1013.00 1013.00 1013.00 1012.98 1012.89 1012.71 1012.43 1012.05 1011.58 1011.02 1010.42 1009.79 1009.16 1008.54 1007.96 1007.43 1006.93 1006.48 1006.07 1005.70 1005.39 1005.15 1005.00 1004.95 1005.02 1005.23 1005.57 1006.03 1006.59 1007.21 1007.84 1008.44 1008.96
1016.91 1016.39 1015.82 1015.24 1014.70 1014.21 1013.80 1013.50 1013.30 1013.18 1013.14 1013.15 1013.18 1013.20 1013.18 1013.09 1012.92 1012.66 1012.32 1011.91 1011.43 1010.92 1010.38 1009.83 1009.28 1008.74 1008.21 1007.70 1007.20 1006.71 1006.26 1005.86 1005.52 1005.27 1005.13 1005.13 1005.28 1005.56 1005.98 1006.49 1007.06 1007.64 1008.20 1008.70
Thickness
5800 5787 5780 5788 5794 5796 5791 5786 5783 5793 5808 5801 5794 5796 5803 5809 5808 5805 5803 5804 5804 5806 5811 5811 5811 5809 5806 5802 5800 5797 5795 5793 5790 5787 5783 5779 5777 5777 5776 5775 5774 5773 5772 5770
5783 5779 5797 5804 5802 5797 5791 5783 5784 5793 5806 5801 5792 5794 5804 5809 5809 5809 5808 5807 5808 5808 5808 5809 5809 5809 5806 5803 5800 5798 5796 5794 5791 5789 5786 5782 5779 5777 5776 5775 5773 5772 5771 5769
5780 5792 5807 5802 5795 5790 5788 5784 5787 5787 5795 5797 5790 5785 5795 5806 5811 5811 5812 5812 5812 5811 5808 5808 5808 5807 5805 5802 5800 5800 5797 5794 5791 5789 5785 5782 5778 5775 5773 5771 5771 5770 5769 5767
5785 5799 5802 5797 5793 5792 5781 5799 5797 5791 5778 5769 5779 5758 5783 5794 5798 5804 5808 5809 5810 5812 5811 5809 5808 5807 5805 5805 5803 5800 5796 5793 5791 5788 5784 5780 5775 5771 5771 5770 5770 5769 5768 5765
5783 5796 5796 5792 5798 5799 5793 5803 5795 5787 5774 5764 5769 5758 5771 5787 5788 5798 5805 5809 5812 5813 5814 5811 5810 5809 5808 5806 5803 5800 5796 5792 5790 5788 5784 5780 5776 5773 5771 5770 5768 5767 5766 5764
5790 5804 5805 5803 5809 5808 5803 5791 5781 5768 5758 5746 5761 5755 5761 5777 5790 5799 5807 5812 5813 5814 5814 5813 5812 5810 5807 5805 5802 5799 5795 5791 5789 5787 5783 5780 5776 5773 5769 5767 5765 5764 5763 5761
5778 5791 5804 5809 5797 5799 5793 5768 5744 5741 5731 5737 5758 5755 5764 5794 5804 5807 5808 5811 5813 5813 5812 5810 5809 5807 5805 5803 5800 5798 5794 5791 5789 5786 5782 5780 5777 5773 5770 5767 5765 5762 5760 5758
5757 5761 5791 5802 5797 5787 5782 5771 5744 5731 5727 5736 5752 5751 5777 5803 5810 5813 5812 5812 5812 5810 5810 5810 5808 5805 5803 5801 5798 5796 5793 5790 5788 5784 5782 5780 5777 5773 5770 5768 5765 5762 5759 5757
5754 5760 5793 5804 5807 5797 5776 5767 5770 5744 5737 5732 5741 5758 5782 5803 5804 5805 5806 5806 5807 5807 5808 5807 5806 5804 5802 5800 5798 5796 5793 5790 5787 5784 5781 5779 5776 5772 5769 5767 5765 5761 5758 5756
5769 5761 5782 5796 5800 5795 5789 5772 5753 5740 5725 5723 5738 5748 5761 5784 5791 5796 5799 5800 5802 5803 5804 5804 5804 5802 5801 5800 5798 5795 5793 5790 5787 5783 5781 5778 5776 5773 5769 5765 5762 5759 5755 5752
5774 5760 5768 5777 5777 5775 5773 5765 5752 5739 5738 5724 5722 5744 5785 5787 5793 5794 5797 5799 5799 5799 5800 5799 5799 5799 5797 5796 5795 5792 5789 5786 5783 5780 5778 5775 5773 5770 5766 5762 5759 5755 5752 5748
5768 5753 5746 5762 5782 5788 5781 5770 5754 5743 5735 5731 5729 5748 5795 5793 5794 5793 5794 5795 5796 5797 5796 5796 5794 5793 5791 5789 5788 5787 5785 5783 5780 5778 5775 5771 5769 5766 5762 5758 5755 5752 5748 5745
5765 5747 5733 5742 5757 5771 5771 5768 5760 5750 5735 5724 5727 5751 5788 5788 5788 5789 5789 5790 5790 5791 5790 5789 5788 5786 5784 5783 5782 5781 5780 5779 5777 5774 5770 5766 5763 5760 5757 5754 5751 5748 5745 5741
5770 5744 5738 5735 5744 5758 5761 5764 5759 5749 5733 5727 5737 5755 5772 5777 5778 5781 5783 5784 5785 5784 5783 5782 5780 5779 5778 5777 5776 5776 5774 5774 5771 5768 5764 5761 5759 5755 5753 5749 5746 5743 5740 5736
5762 5742 5745 5749 5759 5760 5758 5759 5759 5754 5749 5742 5750 5753 5767 5773 5775 5778 5779 5778 5778 5777 5777 5776 5774 5773 5772 5772 5771 5770 5769 5769 5767 5762 5759 5756 5754 5751 5747 5744 5741 5738 5734 5732
5748 5741 5741 5743 5752 5753 5750 5753 5755 5753 5753 5751 5753 5756 5771 5772 5772 5771 5772 5772 5770 5771 5771 5770 5770 5768 5767 5766 5765 5764 5763 5762 5759 5756 5753 5751 5749 5745 5742 5739 5736 5732 5728 5725
5734 5732 5726 5723 5739 5743 5733 5745 5747 5748 5751 5750 5748 5758 5765 5763 5764 5765 5767 5767 5766 5767 5766 5765 5764 5763 5762 5761 5760 5758 5757 5755 5752 5749 5746 5744 5741 5738 5736 5734 5730 5725 5722 5718
5727 5721 5713 5711 5722 5713 5733 5752 5752 5747 5748 5751 5754 5758 5760 5761 5761 5763 5764 5762 5761 5762 5761 5761 5759 5758 5758 5757 5755 5753 5751 5748 5745 5742 5739 5737 5734 5731 5729 5726 5723 5719 5715 5711
5726 5718 5705 5699 5702 5711 5730 5743 5744 5741 5740 5750 5750 5752 5754 5756 5755 5753 5758 5758 5757 5757 5757 5756 5755 5754 5752 5750 5748 5746 5744 5740 5738 5734 5732 5730 5727 5724 5722 5718 5716 5712 5708 5704
5715 5713 5703 5694 5697 5697 5723 5742 5749 5741 5729 5746 5746 5745 5745 5746 5735 5739 5750 5751 5750 5749 5749 5748 5747 5746 5744 5742 5740 5738 5735 5732 5729 5728 5725 5723 5720 5717 5715 5712 5709 5705 5702 5698
5698 5696 5693 5691 5693 5703 5726 5737 5740 5718 5725 5740 5741 5740 5739 5735 5735 5739 5742 5741 5741 5740 5740 5740 5738 5736 5734 5733 5731 5728 5725 5723 5723 5721 5717 5715 5713 5710 5708 5705 5701 5698 5694 5691
5688 5687 5684 5683 5686 5697 5723 5725 5720 5722 5731 5733 5734 5733 5731 5731 5732 5732 5731 5730 5729 5729 5730 5729 5727 5725 5723 5723 5721 5718 5715 5715 5714 5712 5709 5707 5705 5703 5701 5696 5693 5689 5686 5682
5682 5686 5685 5688 5693 5706 5714 5717 5721 5723 5722 5724 5725 5726 5725 5724 5723 5722 5720 5720 5719 5719 5718 5716 5715 5713 5711 5711 5711 5707 5706 5706 5704 5702 5700 5699 5697 5694 5692 5687 5683 5679 5676 5673
5680 5682 5681 5684 5694 5702 5707 5711 5715 5717 5718 5720 5720 5719 5717 5715 5714 5712 5711 5711 5710 5708 5706 5704 5703 5702 5700 5700 5700 5699 5698 5698 5696 5694 5692 5690 5688 5685 5682 5678 5675 5671 5668 5665
5674 5674 5673 5676 5686 5694 5700 5703 5705 5709 5711 5711 5711 5711 5709 5707 5705 5703 5701 5700 5699 5697 5696 5695 5693 5690 5689 5689 5689 5689 5688 5687 5685 5684 5682 5678 5676 5674 5671 5668 5666 5664 5661 5658
5667 5668 5668 5672 5681 5682 5687 5695 5699 5700 5701 5701 5701 5700 5700 5700 5697 5695 5692 5690 5689 5687 5684 5684 5683 5681 5680 5679 5677 5677 5677 5676 5675 5673 5670 5668 5666 5664 5661 5658 5656 5655 5653 5651